{"data":{"norad_id":48125,"epoch":"2026-09-19T18:36:04.717440Z","epoch_age_seconds":91862,"freshness":"FRESH","line1":"1 48125U 21027AK  26262.77505460  .00004730  00000+0  16401-3 0  9992","line2":"2 48125  53.1592 342.3463 0001148  90.0583 270.0550 15.31717076302249","mean_motion":15.31717076,"eccentricity":0.0001148,"inclination_deg":53.1592,"raan_deg":342.3463,"arg_perigee_deg":90.0583,"mean_anomaly_deg":270.055,"bstar":0.00016401,"rev_number":30224,"period_min":94.012139876411,"perigee_km":469.90284779563,"apogee_km":471.47533826659,"semimajor_km":6848.8260930311,"source":"CELESTRAK","updated_at":"2026-09-20T09:00:38.766280Z"}}